{"data":{"norad_id":65807,"intl_designator":"2025-218S","name":"STARLINK-35285","alt_names":[],"object_type":"PAYLOAD","status":"ACTIVE","operator":null,"country":"US","launch_date":"2025-09-26","launch_site_code":"AFWTR","launch_vehicle":null,"mission":null,"orbit_class":"UNKNOWN","rcs_meters":null,"size_class":null,"mass_kg":null,"dimensions":null,"purposes":["comms"],"wikipedia_slug":null,"has_3d_model":false,"image_url":null,"decayed_at":null,"tle_current":{"epoch":"2026-05-25T03:35:08.026080Z","epoch_age_seconds":62240,"freshness":"FRESH","line1":"1 65807U 25218S   26145.14939845  .00003294  00000+0  23218-3 0  9991","line2":"2 65807  97.4485   7.9217 0002749  70.4161 289.7363 15.05657739 36478","mean_motion":15.05657739,"eccentricity":0.0002749,"inclination_deg":97.4485,"raan_deg":7.9217,"arg_perigee_deg":70.4161,"mean_anomaly_deg":289.7363,"bstar":0.00023218,"rev_number":3647,"period_min":95.639265332398,"perigee_km":547.58301157372,"apogee_km":551.39181947737,"semimajor_km":6927.6244155255,"source":"CELESTRAK","updated_at":"2026-05-25T13:38:20.939401Z"}}}